Mosinee, WI

2:29 PM CST on January 22, 2018 (GMT -0600)
Central Wisconsin

Weather History for KCWA - December, 2012

Change the Weather History Date:

Friday, December 21, 2012

  Actual Average Record
Temperature  
Mean Temperature 19 °F -  
Max Temperature 28 °F 22 °F 71 °F (2008)
Min Temperature 10 °F 7 °F -14 °F (1999)
Degree Days  
Heating Degree Days 46    
Moisture  
Dew Point 17 °F    
Average Humidity 88    
Maximum Humidity 100    
Minimum Humidity 80    
Precipitation  
Precipitation 0.00 in - - ()
Sea Level Pressure  
Sea Level Pressure 29.96 in    
Wind  
Wind Speed 20 mph (NW)    
Max Wind Speed 29 mph    
Max Gust Speed 36 mph    
Visibility 9 miles    
Events      
Averages and records for this station are not official NWS values.
T = Trace of Precipitation, MM = Missing Value Source: NWS Daily Summary

Daily Weather History Graph

Daily Weather History Graph

Search for Another Location

Airport or City:

Trip Planner

Search our weather history database for the weather conditions in past years. The results will help you decide how hot, cold, wet, or windy it might be!

Date:

Astronomy

Dec. 21, 2012 Rise Set
Actual Time 7:33 AM CST 4:20 PM CST
Civil Twilight 6:59 AM CST 4:54 PM CST
Nautical Twilight 6:22 AM CST 5:31 PM CST
Astronomical Twilight 5:46 AM CST 6:07 PM CST
Moon 12:17 PM CST (12/21) 1:09 AM CST (12/21)
Length of Visible Light 9h 55m
Length of Day
8h 47m
Waxing Gibbous, 65% of the Moon is Illuminated
Dec 21
Waxing Gibbous
Dec 28
Full
Jan 4
Last Quarter
Jan 11
New
Jan 18
First Quarter

Hourly Weather History & Observations

Time (CST) Temp. Windchill Dew Point Humidity Pressure Visibility Wind Dir Wind Speed Gust Speed Precip Events Conditions
12:15 AM 28.4 °F 13.0 °F 24.8 °F 86% 29.66 in 5.0 mi NNW 28.8 mph 34.5 mph N/A   Overcast
12:35 AM 28.4 °F 14.1 °F 24.8 °F 86% 29.67 in 7.0 mi NW 24.2 mph 33.4 mph N/A   Overcast
12:55 AM 28.4 °F 14.1 °F 24.8 °F 86% 29.68 in 7.0 mi NNW 24.2 mph 34.5 mph N/A   Overcast
1:15 AM 28.4 °F 14.1 °F 24.8 °F 86% 29.69 in 7.0 mi NNW 24.2 mph 33.4 mph N/A   Overcast
1:55 AM 28.4 °F 14.7 °F 23.0 °F 80% 29.72 in 10.0 mi NW 21.9 mph 26.5 mph N/A   Overcast
2:15 AM 26.6 °F 12.4 °F 23.0 °F 86% 29.73 in 10.0 mi NW 21.9 mph 29.9 mph N/A   Overcast
2:35 AM 26.6 °F 12.7 °F 23.0 °F 86% 29.74 in 10.0 mi NW 20.7 mph 29.9 mph N/A   Overcast
2:55 AM 26.6 °F 12.7 °F 23.0 °F 86% 29.75 in 10.0 mi NW 20.7 mph 28.8 mph N/A   Overcast
3:15 AM 26.6 °F 11.7 °F 23.0 °F 86% 29.76 in 10.0 mi NW 24.2 mph 32.2 mph N/A   Overcast
3:35 AM 24.8 °F 10.0 °F 23.0 °F 93% 29.77 in 7.0 mi NW 21.9 mph 32.2 mph N/A   Overcast
3:55 AM 24.8 °F 11.9 °F 23.0 °F 93% 29.79 in 7.0 mi NW 16.1 mph 31.1 mph N/A   Overcast
4:15 AM 23.0 °F 7.6 °F 23.0 °F 100% 29.80 in 7.0 mi NW 21.9 mph 27.6 mph N/A   Overcast
4:35 AM 23.0 °F 7.2 °F 23.0 °F 100% 29.81 in 7.0 mi NW 23.0 mph 29.9 mph N/A   Overcast
5:55 AM 21.2 °F 5.6 °F 19.4 °F 93% 29.86 in 7.0 mi NW 20.7 mph 35.7 mph N/A   Overcast
6:45 AM 21.2 °F 4.9 °F 19.4 °F 93% 29.89 in 10.0 mi NNW 23.0 mph 28.8 mph N/A   Overcast
7:50 AM 19.4 °F 3.6 °F 17.6 °F 93% 29.94 in 10.0 mi NW 19.6 mph 26.5 mph N/A   Overcast
8:45 AM 19.4 °F 2.5 °F 17.6 °F 93% 29.96 in 10.0 mi NNW 23.0 mph 27.6 mph N/A   Overcast
9:45 AM 19.4 °F 3.2 °F 17.6 °F 93% 29.98 in 10.0 mi NNW 20.7 mph 32.2 mph N/A   Overcast
10:45 AM 19.4 °F 4.5 °F 17.6 °F 93% 30.00 in 10.0 mi NW 17.3 mph 31.1 mph N/A   Overcast
11:45 AM 21.2 °F 6.4 °F 17.6 °F 86% 30.01 in 10.0 mi NW 18.4 mph 21.9 mph N/A   Overcast
12:55 PM 23.0 °F 9.6 °F 17.6 °F 80% 30.01 in 10.0 mi NW 16.1 mph 25.3 mph N/A   Overcast
1:55 PM 23.0 °F 8.3 °F 17.6 °F 80% 30.04 in 10.0 mi NNW 19.6 mph 25.3 mph N/A   Overcast
2:45 PM 23.0 °F 9.6 °F 17.6 °F 80% 30.06 in 10.0 mi NW 16.1 mph 24.2 mph N/A   Overcast
3:45 PM 21.2 °F 9.5 °F 17.6 °F 86% 30.07 in 10.0 mi WNW 11.5 mph - N/A   Overcast
4:45 PM 21.2 °F 8.9 °F 15.8 °F 80% 30.10 in 10.0 mi NW 12.7 mph - N/A   Mostly Cloudy
5:45 PM 17.6 °F 8.2 °F 15.8 °F 93% 30.12 in 10.0 mi WNW 6.9 mph - N/A   Scattered Clouds
6:55 PM 17.6 °F 5.7 °F 14.0 °F 86% 30.14 in 10.0 mi WNW 10.4 mph - N/A   Scattered Clouds
8:45 PM 15.8 °F 5.1 °F 12.2 °F 86% 30.14 in 10.0 mi West 8.1 mph - N/A   Clear
9:15 PM 14.0 °F 2.0 °F 12.2 °F 93% 30.14 in 10.0 mi West 9.2 mph - N/A   Clear
9:35 PM 14.0 °F 2.0 °F 10.4 °F 86% 30.15 in 10.0 mi WNW 9.2 mph - N/A   Clear
9:45 PM 12.2 °F -1.8 °F 10.4 °F 92% 30.15 in 10.0 mi WNW 11.5 mph - N/A   Clear
9:55 PM 14.0 °F 1.2 °F 12.2 °F 93% 30.15 in 10.0 mi WNW 10.4 mph - N/A   Clear
10:15 PM 14.0 °F 1.2 °F 10.4 °F 86% 30.14 in 10.0 mi WNW 10.4 mph - N/A   Clear
10:35 PM 14.0 °F 1.2 °F 10.4 °F 86% 30.15 in 10.0 mi WNW 10.4 mph - N/A   Clear
10:55 PM 14.0 °F 2.0 °F 10.4 °F 86% 30.15 in 10.0 mi WNW 9.2 mph - N/A   Clear
11:15 PM 12.2 °F 1.7 °F 8.6 °F 85% 30.15 in 10.0 mi WNW 6.9 mph - N/A   Clear
11:35 PM 10.4 °F -0.4 °F 8.6 °F 92% 30.14 in 10.0 mi NW 6.9 mph - N/A   Clear
11:55 PM 10.4 °F 0.8 °F 6.8 °F 85% 30.14 in 10.0 mi NW 5.8 mph - N/A   Clear